Location: Hamburg
(53.5554°N, 9.9941°E)
Time: 18:52:37
(UTC+02:00)

ISS - Visible Passes

Search period start: 26 March 2017 00:00
Search period end: 05 April 2017 01:00
Orbit: 399 x 409 km, 51.6° (Epoch: 27 March)

Date Brightness Start Highest point End Pass type
(mag) Time Alt. Az. Time Alt. Az. Time Alt. Az.
28 Mar -1.8 21:00:26 10° S 21:01:52 14° SSE 21:01:52 14° SSE visible
29 Mar -2.6 21:42:48 10° SW 21:45:00 27° S 21:45:00 27° S visible
30 Mar -2.4 20:50:52 10° SSW 20:53:29 22° SSE 20:55:12 15° ESE visible
30 Mar -2.0 22:26:20 10° WSW 22:27:53 25° WSW 22:27:53 25° WSW visible
31 Mar -3.5 21:34:03 10° WSW 21:37:11 44° SSE 21:37:54 37° SE visible
31 Mar -0.9 23:10:13 10° W 23:10:33 12° W 23:10:33 12° W visible
01 Apr -3.0 20:41:51 10° SW 20:44:51 34° SSE 20:47:46 11° E visible
01 Apr -3.3 22:17:49 10° WSW 22:20:25 48° SW 22:20:25 48° SW visible
02 Apr -3.7 21:25:26 10° WSW 21:28:39 57° S 21:30:11 27° ESE visible
02 Apr -1.4 23:01:45 10° W 23:02:49 19° W 23:02:49 19° W visible
03 Apr -3.4 20:33:05 10° WSW 20:36:15 48° SSE 20:39:26 10° E visible
03 Apr -3.8 22:09:18 10° W 22:12:30 60° S 22:12:30 60° S visible
04 Apr -3.8 21:16:52 10° W 21:20:05 63° S 21:22:07 21° ESE visible
04 Apr -1.8 22:53:15 10° W 22:54:46 23° WSW 22:54:46 23° WSW visible
